Miscellaneous Local Product
Issued by NWS North Platte, NE

Home | Current Version | Previous Version | Text Only | Print | Product List | Glossary On
Versions: 1 2 3 4 5 6 7 8 9 10 11 12 13 14 15 16 17 18 19 20 21 22 23 24 25 26 27 28 29 30 31 32 33 34 35 36 37 38 39 40 41 42 43 44 45 46 47 48 49 50
000
AXUS43 KLBF 190910
MISLBF


WESTERN AND NORTH CENTRAL NEBRASKA HOURLY WEATHER ROUNDUP
NATIONAL WEATHER SERVICE NORTH PLATTE NE
300 AM CST FRI JAN 19 2018

NOTE: "FAIR" INDICATES FEW OR NO CLOUDS BELOW 12,000 FEET WITH NO
SIGNIFICANT WEATHER AND/OR OBSTRUCTIONS TO VISIBILITY.

NOTE: STATIONS NOT REPORTING VARIABLES SUCH AS SKY/WEATHER OR
PRESSURE ARE PROVIDED BY RAWS AND APRS NETWORKS AND ARE NOT UNDER
NATIONAL WEATHER SERVICE QUALITY CONTROL.

...OBSERVATIONS IN AND NEAR THE EASTERN PANHANDLE OF NEBRASKA...

CITY           SKY/WX    TMP DP  RH WIND       PRES   REMARKS
PINE RIDGE     CLOUDY    33  28  81 SW7       29.70F WCI  27
GORDON         FAIR      41  30  66 SW12      29.70F
CHADRON        CLOUDY    34  29  82 CALM      29.70F
ALLIANCE       CLOUDY    39  30  70 W13       29.75F WCI  31
SIDNEY         MOCLDY    31  20  63 SW10      29.80F WCI  22
CRESCENT LAKE    N/A     41  24  51 SW5         N/A
$$

...OBSERVATIONS IN NORTHERN NEBRASKA AND FAR SOUTHERN SOUTH DAKOTA...

CITY           SKY/WX    TMP DP  RH WIND       PRES   REMARKS
WINNER         FAIR      43  31  62 SW14      29.62F
VALENTINE      PTCLDY    40  30  67 W6        29.67F
AINSWORTH      CLOUDY    42  32  70 SW12      29.68S
O`NEILL        CLOUDY    38  31  74 S9        29.68F WCI  32
THEDFORD       MOCLDY    39  31  72 CALM      29.73S
BROKEN BOW     CLOUDY    38  25  59 SW5       29.75F WCI  34
ORD            CLOUDY    28  25  88 CALM      29.74F
ALBION         CLOUDY    34  28  79 CALM      29.75S
VALENTINE NWR    N/A     45  31  58 SW12        N/A
HALSEY           N/A     42  27  55 SW3         N/A
BUTTE            N/A     39  32  76 SW13G20     N/A  WCI  31
CHAMBERS         N/A     38  28  66 S6          N/A  WCI  33
EWING            N/A     35  29  80 S6          N/A  WCI  30
$$

...OBSERVATIONS IN SOUTHWEST NEBRASKA AND FAR NORTHEAST COLORADO...

CITY           SKY/WX    TMP DP  RH WIND       PRES   REMARKS
WRAY           FAIR      34  16  47 W7        29.82F WCI  28
HOLYOKE        FAIR      34  23  64 W9        29.81F WCI  26
IMPERIAL       PTCLDY    30  23  75 CALM      29.81F
OGALLALA       PTCLDY    27  24  87 W7        29.79F WCI  19
NORTH PLATTE   MOCLDY    25  21  85 NW6       29.79F WCI  18
MCCOOK         MOCLDY    28  21  75 W7        29.81F WCI  21
LEXINGTON      CLOUDY    30  25  80 CALM      29.78S
STAPLETON        N/A     33  26  77 CALM        N/A
GOTHENBURG       N/A     32  26  78 CALM        N/A
CALLAWAY         N/A     40  27  60 W8          N/A  WCI  34
$$

...OBSERVATIONS IN CENTRAL LINCOLN COUNTY AREA...

CITY           SKY/WX    TMP DP  RH WIND       PRES   REMARKS
N.P. AIRPORT   MOCLDY    25  21  85 NW6       29.79F WCI  18
N.P. DOWNTOWN    N/A     26  24  92 CALM        N/A
N.P. SOUTHEAST   N/A     28  25  88 CALM        N/A
N.P. HILLCREST   N/A     34  28  77 W3          N/A
$$

...SOME OBSERVATIONS FROM AROUND THE REGION...

CITY           SKY/WX    TMP DP  RH WIND       PRES   REMARKS
DENVER         CLOUDY    48  11  22 S18       29.85F
BERTHOUD PASS  FAIR      28  16  59 SW13G32   30.18F WCI  18
GRAND JUNCTION PTCLDY    26  18  71 SE10      30.10F WCI  16
LARAMIE        CLOUDY    39  15  37 SW18      29.92S WCI  30
CHEYENNE       CLOUDY    42  18  37 SW9       29.87F
CASPER         PTCLDY    44  15  31 SW25G35   29.77F
BISMARCK       CLOUDY    27  24  89 CALM      29.56F
RAPID CITY     CLOUDY    41  28  60 E5        29.61F
PIERRE         MOCLDY    24  23  96 CALM      29.60F
SIOUX FALLS    CLOUDY    27  24  89 MISG      29.68F
OMAHA          CLOUDY    28  23  81 SE12      29.83F WCI  18
GRAND ISLAND   CLOUDY    36  25  64 SW12      29.78F WCI  28
SCOTTSBLUFF    CLOUDY    34  28  79 CALM      29.79F
KANSAS CITY    CLOUDY    33  19  56 SW18      29.97F WCI  22
HILL CITY      CLOUDY    33  13  43 W5        29.85F WCI  29
WICHITA        CLOUDY    30  16  56 S13       30.01F WCI  20
DODGE CITY     CLOUDY    34  13  41 SW15      29.92S WCI  24
OKLAHOMA CITY  CLOUDY    27  14  58 S10       30.10F WCI  17
DALLAS         MOCLDY    40  20  44 S9        30.25S WCI  34
AMARILLO       CLOUDY    29  11  47 SW13      30.00S WCI  19
$$




USA.gov is the U.S. government's official web portal to all federal, state and local government web resources and services.